Location: Grandview
(34.8900°N, 117.1058°W)
Time: 05:25:29
(UTC-07:00)

Tiangong 1 - Pass Details

Date: 15 October 2017
Orbit: 293 x 320 km, 42.8° (Epoch: 21 October)

Event Time Altitude Azimuth Distance (km) Brightness Sun altitude
Rises 20:18:09 0° 289° (WNW) 2,029 6.0 -26.4°
Reaches altitude 10° 20:20:17 10° 277° (W) 1,193 4.6 -26.8°
Enters shadow 20:20:28 11° 275° (W) 1,126 4.4 -26.9°
